Wetbulb
68.79 69.37 70.32 70.36 70.91 71.02 71.04 71.65 73.23 73.44 74.02 74.76 75.28 74.83 76.08 76.79 77.00 74.37 74.31 75.09 74.89 73.43 72.78 73.71 77.62 77.37 76.84 76.96 77.69 77.74 77.79 75.97 75.33
66.67 68.01 69.48 70.87 71.20 71.67 71.67 71.85 73.40 73.95 74.50 74.80 75.22 74.87 75.25 75.89 76.31 75.67 74.73 76.31 76.17 73.10 76.58 74.71 76.23 73.96 76.65 76.60 78.07 77.00 78.17 76.10 76.81
65.25 66.65 68.57 70.19 71.58 71.65 72.07 72.37 73.25 74.22 74.75 74.75 75.25 75.27 75.05 74.49 74.71 75.06 76.29 76.45 75.00 76.16 76.34 77.25 77.08 76.51 76.58 76.76 77.06 77.07 77.65 76.42 78.30
65.02 66.39 67.69 69.15 71.15 72.26 72.84 72.68 73.18 73.15 74.02 74.12 75.03 75.11 75.31 75.37 74.73 74.75 75.38 75.27 75.71 76.38 76.45 76.14 76.46 76.88 76.80 76.92 77.43 77.49 78.27 77.75 77.09
65.76 66.66 67.56 69.36 69.91 71.49 72.74 73.14 73.61 73.67 73.59 73.88 74.92 76.15 75.99 75.47 74.83 75.47 74.26 74.74 75.30 77.40 78.17 76.86 76.95 76.60 76.45 76.17 76.39 76.85 76.15 75.42 75.12
65.96 66.28 67.60 69.49 70.69 70.67 71.69 72.17 73.08 73.96 74.32 73.77 73.64 75.27 74.49 74.72 74.53 73.57 74.41 75.37 75.58 77.24 77.93 77.39 75.75 77.09 77.58 77.05 76.09 76.70 76.76 76.75 76.20
66.24 66.17 67.16 69.09 69.79 69.81 70.43 71.67 73.56 72.48 73.93 73.85 72.44 75.44 74.89 72.61 75.12 74.72 73.67 75.68 76.95 76.18 78.26 77.47 77.35 76.79 77.41 77.32 76.41 76.61 76.17 76.64 76.75
65.46 66.00 66.66 67.92 68.44 69.56 70.40 71.79 72.53 73.41 74.59 75.33 74.62 73.03 76.37 76.21 76.61 76.26 76.09 75.29 77.51 77.41 77.74 77.53 77.46 77.21 77.29 76.37 75.46 74.88 77.11 76.77 76.31
65.02 65.65 65.41 67.18 67.82 68.62 69.36 70.66 70.87 72.15 73.15 74.28 74.19 74.39 74.57 75.89 75.76 76.64 76.14 76.96 77.04 78.07 77.90 77.79 77.82 76.79 77.04 76.28 75.01 69.59 68.14 72.80 75.47
65.32 65.92 67.16 66.96 67.72 68.51 69.39 67.41 70.19 70.27 72.05 73.14 72.93 73.73 73.72 75.71 75.42 75.61 76.02 76.33 76.23 76.53 76.80 77.02 77.06 77.01 77.05 77.00 77.39 67.61 66.09 67.90 73.95
65.82 66.60 67.75 67.72 67.79 68.08 69.12 68.97 67.76 68.00 68.67 69.62 70.39 70.43 69.69 72.18 73.13 74.11 74.68 74.54 74.47 75.85 76.48 75.65 77.36 76.81 77.14 77.19 76.34 65.27 64.38 67.50 75.28
67.93 68.53 69.01 68.84 69.44 69.04 68.86 68.16 69.36 68.69 68.03 67.16 67.62 65.68 66.80 70.91 70.42 72.15 72.21 72.26 73.10 75.16 75.10 75.04 75.57 75.94 75.65 75.71 76.21 64.10 64.66 67.84 75.98
69.22 70.15 70.02 69.10 69.76 69.50 69.59 69.89 70.24 68.03 67.02 67.40 66.96 67.12 67.85 68.04 69.13 70.46 71.03 71.87 72.63 73.12 73.60 72.06 70.17 69.75 71.93 66.85 72.00 59.37 61.52 64.80 73.91
69.82 68.60 69.22 69.49 68.94 67.99 68.27 69.42 69.42 69.08 69.10 69.68 70.96 70.60 70.01 69.10 68.38 69.41 69.15 70.35 71.30 71.15 70.47 68.57 69.03 68.95 68.06 68.22 63.48 64.54 56.77 57.13 69.24
68.99 68.77 68.92 69.56 68.64 68.46 68.92 69.27 69.15 68.82 68.36 69.86 71.01 71.02 70.73 70.52 70.09 69.77 69.56 70.69 70.29 69.23 68.71 68.23 66.32 63.65 62.24 62.28 62.58 55.97 56.49 55.38 57.43
67.32 66.25 65.77 66.17 65.80 65.96 66.94 67.64 68.37 67.66 68.66 68.63 69.43 68.82 67.66 65.89 65.38 66.09 66.56 66.13 65.86 65.24 65.40 64.43 62.54 61.67 60.25 59.73 60.67 60.67 56.13 55.38 56.53
65.69 66.12 65.32 65.63 65.34 64.91 65.58 67.05 66.18 67.83 68.58 68.31 68.33 65.89 65.96 64.27 62.57 63.64 65.57 65.78 66.79 65.58 64.98 64.03 63.13 63.28 62.45 61.30 59.73 59.09 59.89 60.71 59.95
65.80 66.03 66.12 66.14 65.27 64.49 65.14 65.63 65.78 66.25 66.60 67.47 64.63 64.21 65.43 66.23 65.04 62.65 59.44 59.11 58.63 63.66 57.81 55.96 62.32 63.55 63.88 62.55 62.08 58.94 51.23 55.41 59.40
66.42 66.27 66.42 65.96 65.53 64.91 65.10 64.83 66.30 66.04 66.60 66.50 63.68 61.55 62.06 64.37 65.57 65.46 63.97 60.82 59.48 47.11 46.95 44.96 44.14 45.49 55.44 58.16 49.40 46.35 45.33 45.51 46.96
63.87 66.57 66.31 65.59 64.43 65.09 65.19 65.62 65.58 66.66 66.17 65.84 64.51 64.05 65.58 65.37 64.27 65.37 63.89 63.37 62.43 60.83 53.26 45.77 44.34 43.66 44.59 46.17 48.08 45.31 45.33 45.69 47.29
MSLP
1004.57 1005.04 1005.09 1005.38 1006.16 1007.36 1008.20 1008.83 1009.17 1010.15 1011.39 1012.58 1013.23 1013.72 1014.16 1014.67 1015.06 1015.27 1015.58 1015.76 1015.46 1015.34 1014.97 1015.00 1015.79 1016.52 1016.71 1017.04 1017.25 1017.40 1017.62 1017.98 1017.96
1004.34 1004.92 1005.18 1005.22 1005.79 1006.61 1007.74 1008.48 1008.83 1009.72 1010.69 1011.92 1012.56 1013.00 1013.66 1014.22 1014.63 1014.98 1014.85 1015.17 1015.49 1015.67 1015.35 1015.03 1015.50 1016.23 1016.41 1016.49 1016.83 1017.01 1017.22 1017.55 1017.43
1004.29 1005.16 1005.57 1005.45 1005.61 1006.33 1007.33 1007.91 1008.44 1009.35 1010.07 1011.03 1011.71 1012.21 1012.97 1013.58 1014.11 1014.54 1014.60 1014.81 1015.14 1015.25 1015.31 1015.20 1015.65 1015.96 1016.20 1016.53 1016.75 1016.65 1017.22 1017.28 1016.95
1004.35 1005.04 1005.60 1005.94 1006.09 1006.23 1006.57 1007.20 1008.13 1008.89 1009.62 1010.24 1010.96 1011.36 1012.01 1012.60 1013.30 1013.82 1014.35 1014.40 1014.66 1015.11 1015.26 1015.69 1015.43 1016.12 1016.20 1016.52 1016.43 1016.83 1017.10 1017.23 1017.11
1004.87 1005.52 1005.89 1006.24 1006.45 1006.89 1006.91 1007.07 1007.58 1008.60 1008.87 1009.31 1010.02 1010.44 1011.26 1011.91 1012.62 1013.01 1013.39 1014.08 1014.30 1014.71 1015.04 1015.21 1015.61 1015.93 1016.27 1016.39 1016.33 1016.59 1017.00 1017.09 1016.60
1005.34 1005.83 1006.23 1006.52 1006.73 1007.17 1007.37 1007.61 1007.62 1008.13 1009.07 1009.26 1009.64 1009.94 1010.63 1011.28 1011.82 1012.55 1012.55 1012.93 1013.63 1014.04 1014.51 1014.83 1015.04 1015.38 1015.62 1015.77 1016.05 1016.12 1016.57 1016.56 1016.46
1005.27 1005.97 1006.56 1006.88 1007.38 1008.11 1008.46 1008.26 1008.00 1008.49 1008.97 1009.62 1009.70 1009.54 1009.89 1010.60 1010.87 1011.69 1012.37 1012.36 1012.78 1013.30 1013.82 1014.23 1014.51 1014.73 1014.99 1015.18 1015.53 1015.63 1015.84 1015.87 1015.90
1005.32 1005.97 1006.51 1007.26 1007.86 1008.26 1008.36 1008.53 1008.55 1008.57 1009.22 1009.51 1009.77 1009.67 1010.19 1010.23 1009.69 1010.82 1011.59 1012.11 1012.36 1012.71 1013.10 1013.49 1013.90 1014.14 1014.44 1014.85 1014.98 1014.98 1015.16 1015.37 1015.45
1005.12 1005.82 1006.56 1007.46 1008.13 1008.48 1009.17 1008.88 1008.97 1009.10 1009.36 1009.80 1010.08 1010.20 1010.33 1010.52 1010.87 1011.36 1011.57 1012.04 1012.51 1012.66 1012.88 1013.11 1013.47 1013.58 1013.68 1014.15 1014.41 1014.18 1014.49 1014.84 1014.79
1004.88 1005.55 1006.22 1007.39 1008.11 1008.90 1009.64 1009.93 1009.80 1009.85 1010.02 1010.27 1010.43 1010.42 1010.30 1010.34 1010.88 1011.11 1011.56 1012.04 1012.36 1012.70 1012.89 1013.16 1013.17 1013.08 1013.19 1013.35 1013.73 1013.84 1014.20 1014.48 1014.60
1004.71 1005.42 1006.19 1007.28 1008.26 1009.25 1009.84 1010.42 1010.82 1010.75 1010.84 1011.09 1011.10 1011.19 1011.29 1010.63 1011.03 1011.22 1011.41 1011.75 1012.22 1012.47 1012.79 1012.92 1012.99 1013.16 1013.15 1013.26 1013.43 1013.77 1014.07 1014.28 1014.42
1004.27 1005.14 1006.12 1007.24 1008.19 1009.23 1010.04 1010.50 1010.92 1011.20 1011.13 1011.56 1011.67 1011.46 1011.13 1010.53 1011.65 1011.44 1011.68 1012.04 1012.19 1012.37 1012.77 1013.03 1013.12 1013.14 1013.40 1013.51 1013.77 1014.32 1014.54 1014.48 1014.10
1004.72 1006.05 1006.91 1008.32 1008.82 1009.23 1009.76 1010.36 1010.71 1011.09 1011.42 1011.53 1012.11 1011.75 1011.71 1011.83 1012.06 1012.02 1011.93 1012.19 1012.43 1012.80 1013.00 1013.34 1013.68 1013.98 1013.94 1014.20 1014.22 1014.86 1014.94 1014.83 1014.09
1005.29 1007.35 1007.82 1008.61 1009.14 1009.81 1010.36 1010.33 1010.43 1010.62 1011.02 1010.92 1010.97 1011.31 1011.58 1011.59 1011.80 1012.92 1012.57 1012.55 1012.84 1013.13 1013.45 1013.65 1013.76 1014.11 1014.44 1014.72 1015.16 1015.32 1015.54 1015.38 1014.91
1005.72 1006.88 1007.67 1008.01 1008.74 1009.24 1009.74 1010.24 1010.46 1010.63 1010.84 1010.99 1011.04 1011.16 1011.67 1012.13 1012.40 1012.67 1012.89 1012.73 1012.87 1013.48 1013.80 1014.02 1014.30 1014.67 1015.08 1015.54 1015.75 1015.99 1015.95 1015.81 1015.75
1006.24 1007.10 1007.67 1008.01 1008.72 1009.46 1009.96 1010.61 1010.93 1010.78 1011.32 1011.69 1011.77 1012.09 1012.49 1013.06 1013.28 1013.31 1013.28 1013.59 1013.72 1013.92 1014.13 1014.61 1014.58 1014.87 1015.25 1015.62 1015.81 1016.11 1016.12 1015.92 1015.52
1006.50 1007.34 1007.96 1008.39 1008.88 1009.35 1010.05 1010.51 1011.31 1011.43 1011.78 1012.12 1012.38 1012.86 1013.10 1013.51 1013.70 1013.78 1013.66 1013.58 1013.68 1013.93 1014.39 1014.64 1014.71 1014.90 1015.30 1015.66 1015.91 1016.17 1016.31 1016.30 1015.94
1006.71 1007.56 1008.20 1008.73 1009.14 1009.67 1010.23 1011.07 1011.65 1011.88 1012.10 1012.23 1012.66 1013.04 1013.12 1013.18 1013.48 1013.75 1014.08 1014.44 1014.77 1014.25 1015.34 1015.49 1015.16 1015.05 1015.16 1015.44 1015.70 1016.68 1017.00 1016.66 1016.36
1006.97 1007.79 1008.45 1009.08 1009.47 1009.97 1010.27 1011.28 1011.42 1012.02 1012.30 1012.49 1012.91 1013.25 1013.24 1013.04 1012.90 1013.14 1013.76 1014.45 1015.12 1015.85 1015.93 1016.02 1015.93 1015.74 1015.39 1016.14 1016.53 1016.90 1017.11 1016.99 1016.98
1007.13 1007.74 1008.49 1009.00 1009.43 1009.88 1010.44 1011.08 1011.49 1011.89 1012.46 1012.76 1013.09 1013.26 1013.28 1013.24 1013.08 1013.22 1013.63 1013.97 1014.46 1015.21 1016.29 1016.30 1016.23 1016.23 1016.30 1016.40 1016.82 1017.20 1017.19 1017.21 1017.14
Wind_Speed
6 6 9 14 18 18 18 15 16 17 18 16 16 16 15 13 13 10 9 10 7 9 7 6 12 8 5 8 7 6 5 6 6
6 4 5 10 13 15 13 17 17 16 17 16 16 17 14 14 13 13 12 9 10 6 10 2 8 5 8 6 5 6 6 7 6
7 4 3 4 10 15 16 18 14 16 17 18 17 16 14 13 14 13 13 8 7 8 3 7 1 5 7 8 6 4 5 9 9
6 4 5 3 4 10 14 17 15 16 14 15 17 17 14 14 14 15 14 12 10 10 10 10 5 5 5 5 7 9 9 8 9
5 2 2 0 5 6 8 13 14 15 16 17 17 15 12 13 11 14 16 14 14 11 12 10 10 8 9 10 10 8 6 10 9
6 3 2 2 3 5 9 12 12 16 13 15 14 14 12 13 13 10 14 15 14 13 12 11 12 11 10 10 9 9 10 10 10
7 4 3 4 4 4 7 10 10 9 15 14 9 5 13 11 15 13 11 12 12 13 12 12 12 11 11 10 11 10 11 11 10
8 6 2 5 4 4 5 7 13 9 12 12 12 5 6 7 12 10 9 6 9 12 11 12 12 12 12 11 11 10 11 10 10
9 7 5 5 3 5 7 5 5 9 10 10 8 11 13 9 9 8 9 8 10 9 10 12 11 13 13 14 11 12 10 9 9
9 7 7 5 8 7 6 6 7 4 3 4 6 9 10 11 10 10 10 8 9 10 11 11 12 14 13 13 14 7 9 11 12
8 7 9 8 10 9 7 8 4 4 7 6 8 5 4 2 3 5 6 6 7 8 8 10 10 12 12 11 10 2 8 10 11
7 9 11 6 12 10 9 7 7 7 6 5 4 4 9 6 2 4 4 4 5 4 6 7 9 9 10 11 9 5 3 4 10
10 7 8 8 8 7 6 6 7 7 5 5 5 3 8 4 6 2 4 3 5 1 1 0 2 4 2 3 3 10 8 6 7
14 11 10 9 9 7 4 5 7 6 7 6 5 6 4 2 1 5 1 0 1 3 0 1 2 2 5 6 8 6 8 7 4
15 14 11 11 9 9 7 5 5 6 4 2 1 3 3 2 2 2 3 5 3 3 4 3 2 4 3 3 4 7 6 5 5
12 12 9 8 8 7 6 6 2 4 6 2 2 5 6 6 6 6 5 4 4 3 4 2 4 3 2 1 2 1 6 7 5
11 10 8 7 6 6 6 6 3 2 3 1 6 7 7 6 5 6 3 4 4 4 3 3 4 3 2 3 3 2 2 1 6
10 8 7 5 4 4 6 5 6 4 3 4 6 5 5 5 6 5 6 7 7 5 6 5 3 4 3 1 4 3 4 1 3
8 8 6 4 4 5 5 7 6 5 5 5 7 5 3 4 4 6 6 5 6 11 9 6 6 7 6 7 9 7 6 8 8
6 8 6 5 4 8 4 9 7 8 6 7 6 5 3 2 1 3 4 4 4 5 4 6 10 9 10 11 9 6 6 4 3
Wind_Direction
150 206 213 210 195 201 195 217 192 192 175 193 194 199 206 205 203 212 216 186 258 235 245 200 128 166 214 199 247 204 220 246 238
165 184 245 220 201 188 183 213 193 197 176 192 196 198 199 205 204 222 210 217 215 240 263 215 147 64 189 230 213 232 263 235 242
141 142 169 237 192 198 201 208 195 195 189 189 197 202 195 199 203 205 225 204 178 245 339 287 299 207 205 218 228 234 225 262 228
141 144 137 158 211 217 198 197 185 197 201 182 200 200 194 199 202 202 210 215 214 222 249 210 211 263 280 285 239 207 221 255 284
128 77 74 250 191 212 242 209 200 205 210 194 199 202 188 196 195 209 199 213 215 213 217 227 241 215 224 233 247 240 244 238 271
160 145 130 307 317 274 223 231 222 187 214 200 209 197 187 203 187 203 224 200 213 207 212 218 232 209 222 229 230 216 216 229 235
158 158 111 47 8 312 269 272 260 177 197 209 237 180 188 202 199 190 211 222 207 209 209 214 221 221 226 219 227 225 228 230 228
164 164 124 69 33 356 309 239 233 207 202 203 209 187 200 224 209 197 186 203 220 216 219 212 219 216 214 227 235 237 220 242 248
180 165 141 99 69 31 21 356 235 224 200 202 205 202 202 203 220 233 226 234 246 232 230 228 218 224 219 208 231 229 206 229 240
189 185 137 128 88 75 78 36 48 69 171 197 208 204 207 177 190 196 209 216 229 238 235 244 230 227 226 218 217 209 195 211 236
182 195 141 143 120 113 100 106 65 82 70 58 45 18 298 113 132 186 202 220 235 240 237 237 241 243 238 236 235 280 194 187 232
170 174 138 140 124 131 130 114 99 84 86 94 74 49 355 338 157 214 195 219 239 270 270 268 255 256 257 252 252 46 49 242 245
125 109 116 136 153 127 151 158 153 144 136 130 196 209 175 270 341 276 243 245 214 185 245 262 21 352 347 68 136 47 17 342 268
121 131 134 147 146 137 162 192 179 178 190 208 213 185 181 180 28 271 44 313 229 167 343 346 7 348 31 24 21 61 22 8 293
133 156 147 160 156 153 162 171 192 195 208 141 263 286 258 192 180 117 306 242 201 261 293 269 114 97 80 38 41 26 24 351 318
140 147 146 143 133 139 145 125 222 221 108 62 137 82 84 82 75 78 72 85 97 86 93 133 122 110 107 97 75 124 60 23 56
145 138 149 130 138 129 133 129 125 132 140 156 126 135 124 125 107 100 128 136 142 104 122 146 129 144 132 119 84 27 10 78 87
146 143 128 126 121 123 132 139 122 126 140 127 117 121 131 128 127 115 97 55 17 55 56 11 28 72 120 99 139 91 317 317 116
146 149 143 143 136 119 137 139 152 137 138 136 137 132 143 191 151 153 122 129 108 53 52 56 52 46 51 84 76 99 97 85 96
135 155 159 176 172 138 163 151 146 127 136 142 152 174 137 73 239 132 153 135 144 135 96 62 59 56 60 59 112 129 124 120 149